Location: Cottbus
(51.7000°N, 14.3000°E)
Time: 11:28:01
(UTC+02:00)

ISS - Visible Passes

Search period start: 28 May 2018 00:00
Search period end: 07 June 2018 00:00
Orbit: 402 x 407 km, 51.6° (Epoch: 28 May)

Date Brightness Start Highest point End Pass type
(mag) Time Alt. Az. Time Alt. Az. Time Alt. Az.
28 May -2.2 01:06:46 10° W 01:08:21 21° WSW 01:08:21 21° WSW visible
28 May -3.9 22:37:55 10° W 22:41:12 89° SSW 22:44:29 10° E visible
29 May -3.5 00:14:27 10° W 00:17:34 42° SSW 00:17:42 41° SSW visible
29 May -3.8 23:22:11 10° W 23:25:25 58° SSW 23:27:06 25° SE visible
30 May -1.4 00:59:13 10° W 00:59:43 12° WSW 00:59:43 12° WSW visible
30 May -3.9 22:29:56 10° W 22:33:12 74° SSW 22:36:29 10° ESE visible
31 May -2.5 00:06:37 10° W 00:09:08 25° SW 00:09:08 25° SW visible
31 May -3.1 23:14:13 10° W 23:17:16 37° SSW 23:18:35 25° SSE visible
01 Jun -3.5 22:21:54 10° W 22:25:06 52° SSW 22:28:02 12° SE visible
01 Jun -1.7 23:59:09 10° WSW 00:00:40 14° SW 00:00:40 14° SW visible
02 Jun -2.3 23:06:24 10° W 23:09:00 22° SW 23:10:09 18° S visible
03 Jun -2.8 22:13:54 10° W 22:16:52 32° SSW 22:19:40 11° SE visible
04 Jun -1.5 22:59:06 10° WSW 23:00:33 12° SW 23:01:50 10° SSW visible
05 Jun -1.9 22:06:04 10° W 22:08:29 19° SW 22:10:54 10° SSE visible
